TimePDT,TemperatureF,Dew PointF,Humidity,Sea Level PressureIn,VisibilityMPH,Wind Direction,Wind SpeedMPH,Gust SpeedMPH,PrecipitationIn,Events,Conditions,WindDirDegrees,DateUTC
12:53 AM,36.0,30.9,82,30.16,10.0,ESE,3.5,-,N/A,,Clear,120,2013-03-14 07:53:00
1:53 AM,34.0,28.9,82,30.15,10.0,Calm,Calm,-,N/A,,Clear,0,2013-03-14 08:53:00
2:53 AM,35.1,30.0,82,30.14,10.0,Calm,Calm,-,N/A,,Clear,0,2013-03-14 09:53:00
3:53 AM,36.0,30.9,82,30.12,10.0,Calm,Calm,-,N/A,,Clear,0,2013-03-14 10:53:00
4:53 AM,35.1,30.0,82,30.10,10.0,Calm,Calm,-,N/A,,Clear,0,2013-03-14 11:53:00
5:53 AM,36.0,30.9,82,30.11,10.0,Calm,Calm,-,N/A,,Clear,0,2013-03-14 12:53:00
6:00 AM,35.6,30.2,81,30.15,10.0,NNW,4.6,-,N/A,,Mostly Cloudy,340,2013-03-14 13:00:00
6:53 AM,37.0,33.1,86,30.12,10.0,Calm,Calm,-,N/A,,Mostly Cloudy,0,2013-03-14 13:53:00
7:53 AM,37.0,33.1,86,30.15,10.0,Calm,Calm,-,N/A,,Mostly Cloudy,0,2013-03-14 14:53:00
8:53 AM,39.0,35.1,86,30.15,10.0,Calm,Calm,-,N/A,,Mostly Cloudy,0,2013-03-14 15:53:00
9:53 AM,46.0,35.1,66,30.17,10.0,Calm,Calm,-,N/A,,Overcast,0,2013-03-14 16:53:00
10:53 AM,50.0,37.0,61,30.18,10.0,NNW,6.9,-,N/A,,Overcast,330,2013-03-14 17:53:00
11:53 AM,53.1,35.1,50,30.18,10.0,Calm,Calm,-,N/A,,Overcast,0,2013-03-14 18:53:00
12:53 PM,59.0,33.1,38,30.14,10.0,SE,3.5,-,N/A,,Overcast,130,2013-03-14 19:53:00
1:53 PM,62.1,28.0,28,30.12,10.0,Calm,Calm,-,N/A,,Mostly Cloudy,0,2013-03-14 20:53:00
2:53 PM,64.9,25.0,22,30.10,10.0,Variable,3.5,-,N/A,,Mostly Cloudy,0,2013-03-14 21:53:00
3:53 PM,63.0,28.0,27,30.12,10.0,WNW,13.8,-,N/A,,Overcast,290,2013-03-14 22:53:00
4:53 PM,60.1,28.9,31,30.13,10.0,West,11.5,-,N/A,,Overcast,270,2013-03-14 23:53:00
5:53 PM,60.1,30.0,32,30.13,10.0,West,12.7,-,N/A,,Overcast,280,2013-03-15 00:53:00
6:53 PM,57.0,30.9,37,30.14,10.0,West,10.4,-,N/A,,Mostly Cloudy,280,2013-03-15 01:53:00
7:53 PM,52.0,30.9,45,30.15,7.0,West,10.4,-,N/A,,Mostly Cloudy,270,2013-03-15 02:53:00
8:53 PM,46.0,30.0,54,30.17,7.0,West,10.4,-,N/A,,Scattered Clouds,270,2013-03-15 03:53:00
9:53 PM,44.1,28.0,53,30.18,7.0,Calm,Calm,-,N/A,,Partly Cloudy,0,2013-03-15 04:53:00
10:53 PM,39.0,30.9,73,30.19,10.0,Calm,Calm,-,N/A,,Clear,0,2013-03-15 05:53:00
11:53 PM,37.0,30.9,79,30.19,10.0,Calm,Calm,-,N/A,,Clear,0,2013-03-15 06:53:00